sat.trackr.live / text

‹ back to catalog

STARLINK-2680

NORAD 48432 · 2021-040E

PAYLOAD ACTIVE UNKNOWN

§ Identity

Operator
Country
US
Launch date
2021-05-09
Launch site
AFETR
Launch vehicle
Mass (kg)
RCS (m²)

Purposes: comms

External: N2YO · Heavens-Above · Gunter

§ Orbital elements

Epoch: 2026-05-25T00:39:20.769408Z

Period
94.01 min
Inclination
53.1594°
Eccentricity
0.0001060
Mean motion
15.31702486 rev/d
Perigee alt
470.0 km
Apogee alt
471.5 km
Semi-major
6,848.9 km
B*
-5.6114e-6
RAAN
157.8589°
Arg perigee
66.3692°
Mean anomaly
293.7421°
Rev number
27,871

§ Raw data

STARLINK-26801 48432U 21040E   26145.02732372 -.00000539  00000+0 -56114-5 0  99922 48432  53.1594 157.8589 0001060  66.3692 293.7421 15.31702486278712

JSON: /api/v1/satellites/48432 · /tle

For live sub-satellite position, see the globe view (requires WebGL).

§ Visibility from observer

Set your observer location to see the next 7 days of passes ≥ 10°. The values pass through the URL so the page stays shareable.

No JS? Fill the form by hand. The geolocation button needs JavaScript.